TAP977 EHAM-LXGB

Flight info

Callsign TAP977
Flight time N/A
Altitude 37000
Route WOODY N872 CIV/N0439F350 DCT KOVIN DCT DUCRA UM728 RESMI/N0446F370 UN857 DISAK DCT ARKIP DCT ARNAV DCT LMG DCT UVELI DCT OSMOB DCT ARVID DCT PPN DCT NOLSA DCT ALEPO DCT VASUM DCT BANEV DCT BAN DCT GOTOR DCT KAMPO DCT MONTO DCT CRISA N864 PIMOS
Aircraft A319/M-SDE3FGHIRWY/LB1

Departure

Time N/A
Airport Amsterdam Airport Schiphol (EHAM)

Arrival

Time 2026-05-06 17:06
Airport Gibraltar Airport (LXGB)
Time Latitude Longitude Altitude Speed Heading
2026-05-06 16:07 41.22624 -2.71948 36943 ft 408 kts 218°
2026-05-06 16:07 41.17957 -2.76227 36942 ft 408 kts 218°
2026-05-06 16:08 41.13287 -2.80512 36940 ft 407 kts 218°
2026-05-06 16:08 41.08623 -2.84786 36941 ft 407 kts 218°
2026-05-06 16:09 41.03959 -2.89048 36943 ft 407 kts 218°
2026-05-06 16:09 40.99328 -2.93271 36944 ft 407 kts 218°
2026-05-06 16:10 40.94669 -2.97516 36940 ft 406 kts 218°
2026-05-06 16:10 40.90012 -3.01752 36940 ft 406 kts 218°
2026-05-06 16:11 40.85349 -3.05978 36939 ft 406 kts 218°
2026-05-06 16:11 40.80700 -3.10195 36938 ft 406 kts 218°
2026-05-06 16:12 40.76047 -3.14412 36935 ft 405 kts 218°
2026-05-06 16:12 40.71398 -3.18612 36930 ft 405 kts 218°
2026-05-06 16:13 40.66743 -3.22806 36927 ft 405 kts 218°
2026-05-06 16:13 40.62096 -3.26984 36921 ft 404 kts 218°
2026-05-06 16:14 40.57449 -3.31154 36923 ft 404 kts 218°
2026-05-06 16:14 40.52804 -3.35325 36916 ft 404 kts 218°
2026-05-06 16:15 40.48159 -3.39492 36918 ft 404 kts 218°
2026-05-06 16:15 40.43665 -3.43505 36929 ft 404 kts 218°
2026-05-06 16:16 40.39045 -3.47629 36933 ft 404 kts 218°
2026-05-06 16:16 40.34402 -3.51764 36925 ft 403 kts 218°
2026-05-06 16:17 40.29764 -3.55885 36921 ft 403 kts 218°
2026-05-06 16:17 40.25129 -3.60007 36925 ft 403 kts 218°
2026-05-06 16:18 40.20494 -3.64117 36919 ft 402 kts 218°
2026-05-06 16:18 40.15856 -3.68222 36916 ft 402 kts 218°
2026-05-06 16:19 40.11221 -3.72315 36915 ft 402 kts 218°
2026-05-06 16:19 40.06586 -3.76401 36911 ft 402 kts 218°
2026-05-06 16:20 40.01958 -3.80482 36910 ft 401 kts 218°
2026-05-06 16:20 39.97323 -3.84550 36906 ft 401 kts 218°
2026-05-06 16:21 39.92701 -3.88610 36910 ft 401 kts 218°
2026-05-06 16:21 39.88078 -3.92664 36906 ft 400 kts 218°
2026-05-06 16:22 39.83483 -3.96685 36909 ft 400 kts 218°
2026-05-06 16:22 39.78830 -4.00739 36906 ft 400 kts 218°
2026-05-06 16:23 39.74237 -4.04735 36908 ft 399 kts 218°
2026-05-06 16:23 39.69594 -4.08782 36903 ft 399 kts 218°
2026-05-06 16:24 39.64982 -4.12791 36901 ft 399 kts 218°
2026-05-06 16:24 39.60398 -4.16771 36903 ft 399 kts 218°
2026-05-06 16:25 39.55787 -4.20768 36897 ft 399 kts 218°
2026-05-06 16:25 39.51175 -4.24756 36896 ft 398 kts 218°
2026-05-06 16:26 39.46566 -4.28736 36905 ft 398 kts 218°
2026-05-06 16:26 39.41956 -4.32715 36902 ft 398 kts 218°
2026-05-06 16:27 39.37347 -4.36673 36901 ft 398 kts 218°
2026-05-06 16:27 39.32742 -4.40623 36896 ft 397 kts 218°
2026-05-06 16:28 39.28885 -4.43935 36898 ft 397 kts 218°
2026-05-06 16:28 39.24271 -4.47857 36897 ft 398 kts 215°
2026-05-06 16:29 39.19021 -4.50357 36897 ft 412 kts 195°
2026-05-06 16:29 39.13358 -4.51533 36886 ft 412 kts 195°
2026-05-06 16:30 39.08655 -4.52519 36887 ft 412 kts 195°
2026-05-06 16:30 39.02075 -4.53906 36882 ft 411 kts 195°
2026-05-06 16:31 38.96418 -4.55094 36882 ft 412 kts 195°
2026-05-06 16:31 38.90760 -4.56276 36881 ft 412 kts 195°
2026-05-06 16:32 38.85108 -4.57461 36880 ft 411 kts 196°
2026-05-06 16:32 38.79458 -4.58644 36880 ft 411 kts 196°
2026-05-06 16:33 38.73848 -4.59809 36884 ft 411 kts 195°
2026-05-06 16:34 38.65382 -4.61555 36880 ft 411 kts 196°
2026-05-06 16:34 38.59747 -4.62722 36881 ft 410 kts 196°
2026-05-06 16:35 38.54115 -4.63892 36876 ft 410 kts 196°
2026-05-06 16:35 38.48489 -4.65052 36878 ft 409 kts 196°
2026-05-06 16:36 38.42863 -4.66208 36875 ft 409 kts 195°
2026-05-06 16:36 38.37247 -4.67360 36871 ft 409 kts 196°
2026-05-06 16:37 38.31632 -4.68511 36871 ft 408 kts 196°
2026-05-06 16:37 38.26025 -4.69660 36869 ft 408 kts 196°
2026-05-06 16:38 38.20417 -4.70816 36862 ft 408 kts 196°
2026-05-06 16:38 38.14859 -4.71961 36866 ft 407 kts 196°
2026-05-06 16:39 38.09254 -4.73106 36869 ft 407 kts 196°
2026-05-06 16:39 38.03658 -4.74238 36857 ft 407 kts 196°
2026-05-06 16:40 37.98068 -4.75377 36857 ft 407 kts 196°
2026-05-06 16:40 37.92477 -4.76518 36855 ft 407 kts 196°
2026-05-06 16:41 37.86886 -4.77657 36696 ft 407 kts 196°
2026-05-06 16:41 37.84095 -4.78223 36427 ft 406 kts 196°
2026-05-06 16:41 37.81303 -4.78788 36166 ft 405 kts 196°
2026-05-06 16:41 37.78522 -4.79350 35907 ft 404 kts 196°
2026-05-06 16:42 37.75741 -4.79911 35652 ft 404 kts 196°
2026-05-06 16:42 37.72967 -4.80470 35401 ft 403 kts 196°
2026-05-06 16:42 37.70201 -4.81025 35151 ft 402 kts 196°
2026-05-06 16:42 37.67450 -4.81577 34899 ft 399 kts 196°
2026-05-06 16:43 37.64715 -4.82128 34653 ft 397 kts 196°
2026-05-06 16:43 37.61992 -4.82678 34417 ft 394 kts 196°
2026-05-06 16:43 37.59296 -4.83224 34171 ft 391 kts 196°
2026-05-06 16:43 37.56612 -4.83767 33932 ft 389 kts 196°
2026-05-06 16:44 37.53944 -4.84303 33669 ft 387 kts 196°
2026-05-06 16:44 37.51327 -4.84828 33395 ft 385 kts 196°
2026-05-06 16:44 37.48681 -4.85358 33119 ft 384 kts 196°
2026-05-06 16:44 37.46052 -4.85885 32847 ft 382 kts 196°
2026-05-06 16:45 37.43441 -4.86408 32454 ft 378 kts 196°
2026-05-06 16:45 37.40850 -4.86926 31953 ft 375 kts 196°
2026-05-06 16:45 37.38281 -4.87440 31462 ft 373 kts 196°
2026-05-06 16:45 37.35730 -4.87952 30986 ft 370 kts 196°
2026-05-06 16:46 37.33185 -4.88461 30513 ft 368 kts 196°
2026-05-06 16:46 37.30657 -4.88965 30049 ft 367 kts 196°
2026-05-06 16:46 37.28140 -4.89471 29546 ft 365 kts 196°
2026-05-06 16:46 37.25664 -4.89967 29108 ft 363 kts 195°
2026-05-06 16:47 37.23181 -4.90465 28673 ft 361 kts 195°
2026-05-06 16:47 37.20712 -4.90958 28245 ft 358 kts 195°
2026-05-06 16:47 37.18260 -4.91445 27815 ft 355 kts 195°
2026-05-06 16:47 37.15826 -4.91932 27387 ft 353 kts 195°
2026-05-06 16:48 37.13407 -4.92417 26953 ft 351 kts 195°
2026-05-06 16:48 37.11005 -4.92894 26523 ft 349 kts 195°
2026-05-06 16:48 37.08612 -4.93367 26083 ft 347 kts 195°
2026-05-06 16:48 37.06229 -4.93825 25634 ft 347 kts 193°
2026-05-06 16:49 37.03801 -4.93902 25173 ft 352 kts 184°
2026-05-06 16:49 37.01356 -4.93780 24706 ft 351 kts 184°
2026-05-06 16:49 36.98915 -4.93652 24217 ft 351 kts 183°
2026-05-06 16:49 36.96464 -4.93524 23731 ft 351 kts 183°
2026-05-06 16:50 36.94019 -4.93395 23201 ft 351 kts 183°
2026-05-06 16:50 36.91580 -4.93266 22697 ft 350 kts 183°
2026-05-06 16:50 36.89181 -4.93140 22223 ft 349 kts 183°
2026-05-06 16:50 36.86729 -4.93012 21744 ft 348 kts 182°
2026-05-06 16:51 36.84352 -4.92889 21291 ft 346 kts 182°
2026-05-06 16:51 36.81948 -4.92765 20828 ft 346 kts 182°
2026-05-06 16:51 36.79548 -4.92641 20369 ft 344 kts 182°
2026-05-06 16:51 36.77153 -4.92515 19915 ft 344 kts 182°
2026-05-06 16:52 36.74761 -4.92391 19462 ft 344 kts 182°
2026-05-06 16:52 36.72372 -4.92267 19012 ft 344 kts 182°
2026-05-06 16:52 36.69983 -4.92143 18561 ft 343 kts 182°
2026-05-06 16:52 36.67593 -4.92021 18108 ft 343 kts 182°
2026-05-06 16:53 36.65209 -4.91903 17629 ft 342 kts 181°
2026-05-06 16:53 36.62836 -4.91785 17191 ft 341 kts 181°
2026-05-06 16:53 36.60472 -4.91664 16752 ft 339 kts 181°
2026-05-06 16:53 36.58122 -4.91544 16336 ft 337 kts 181°
2026-05-06 16:54 36.55777 -4.91423 15907 ft 336 kts 181°
2026-05-06 16:54 36.53457 -4.91305 15503 ft 333 kts 181°
2026-05-06 16:54 36.51140 -4.91189 15093 ft 332 kts 181°
2026-05-06 16:54 36.48833 -4.91074 14691 ft 331 kts 181°
2026-05-06 16:55 36.46540 -4.90959 14292 ft 329 kts 181°
2026-05-06 16:55 36.44257 -4.90842 13921 ft 327 kts 181°
2026-05-06 16:55 36.41982 -4.90724 13477 ft 327 kts 181°
2026-05-06 16:55 36.39713 -4.90606 13063 ft 325 kts 181°
2026-05-06 16:56 36.37464 -4.90486 12665 ft 322 kts 181°
2026-05-06 16:56 36.35232 -4.90367 12261 ft 320 kts 181°
2026-05-06 16:56 36.33019 -4.90255 11870 ft 317 kts 181°
2026-05-06 16:56 36.30821 -4.90145 11469 ft 315 kts 181°
2026-05-06 16:57 36.28632 -4.90036 11068 ft 313 kts 181°
2026-05-06 16:57 36.26460 -4.89927 10668 ft 312 kts 181°
2026-05-06 16:57 36.24294 -4.89817 10259 ft 311 kts 181°
2026-05-06 16:57 36.22138 -4.89706 9858 ft 309 kts 181°
2026-05-06 16:58 36.19995 -4.89595 9414 ft 308 kts 181°
2026-05-06 16:58 36.17861 -4.89483 8992 ft 305 kts 181°
2026-05-06 16:58 36.15747 -4.89374 8567 ft 303 kts 181°
2026-05-06 16:58 36.13708 -4.89701 8180 ft 300 kts 203°
2026-05-06 16:59 36.12098 -4.91249 7792 ft 294 kts 236°
2026-05-06 16:59 36.11439 -4.93553 7505 ft 280 kts 268°
2026-05-06 16:59 36.11604 -4.95878 7181 ft 266 kts 283°
2026-05-06 16:59 36.12043 -4.98048 6823 ft 255 kts 287°
2026-05-06 17:00 36.12504 -5.00137 6481 ft 250 kts 287°
2026-05-06 17:00 36.12918 -5.02236 6099 ft 251 kts 285°
2026-05-06 17:00 36.13275 -5.04350 5724 ft 251 kts 283°
2026-05-06 17:00 36.13579 -5.06458 5348 ft 245 kts 282°
2026-05-06 17:01 36.13839 -5.08508 4998 ft 237 kts 281°
2026-05-06 17:01 36.14074 -5.10497 4644 ft 231 kts 280°
2026-05-06 17:01 36.14295 -5.12444 4305 ft 227 kts 279°
2026-05-06 17:01 36.14507 -5.14360 3902 ft 220 kts 281°
2026-05-06 17:02 36.14704 -5.16173 3616 ft 207 kts 279°
2026-05-06 17:02 36.14890 -5.17893 3318 ft 197 kts 279°
2026-05-06 17:02 36.15068 -5.19519 3044 ft 184 kts 279°
2026-05-06 17:02 36.15234 -5.21043 2725 ft 173 kts 279°
2026-05-06 17:03 36.15390 -5.22479 2443 ft 163 kts 278°
2026-05-06 17:03 36.15497 -5.23829 2185 ft 152 kts 269°
2026-05-06 17:03 36.15442 -5.25095 1925 ft 144 kts 268°
2026-05-06 17:03 36.15402 -5.26270 1685 ft 129 kts 268°
2026-05-06 17:04 36.15368 -5.27346 1445 ft 122 kts 267°
2026-05-06 17:04 36.15328 -5.28385 1226 ft 120 kts 267°
2026-05-06 17:04 36.15284 -5.29419 1069 ft 120 kts 267°
2026-05-06 17:04 36.15281 -5.30460 885 ft 121 kts 268°
2026-05-06 17:05 36.15253 -5.31514 604 ft 124 kts 264°
2026-05-06 17:05 36.15215 -5.32556 289 ft 119 kts 267°
2026-05-06 17:05 36.15164 -5.33587 163 ft 120 kts 268°
2026-05-06 17:05 36.15133 -5.34616 20 ft 112 kts 268°
2026-05-06 17:06 36.15107 -5.35389 22 ft 65 kts 268°
2026-05-06 17:06 36.15093 -5.35799 19 ft 25 kts 265°
2026-05-06 17:06 36.15088 -5.35917 19 ft 8 kts 18°
2026-05-06 17:06 36.15099 -5.35838 19 ft 14 kts 95°
2026-05-06 17:07 36.15100 -5.35678 21 ft 24 kts 89°
2026-05-06 17:07 36.15105 -5.35444 21 ft 27 kts 84°
2026-05-06 17:07 36.15115 -5.35211 22 ft 27 kts 88°
2026-05-06 17:07 36.15124 -5.34983 22 ft 25 kts 86°
2026-05-06 17:08 36.15130 -5.34768 21 ft 24 kts 88°
2026-05-06 17:08 36.15205 -5.34679 22 ft 14 kts 15°
2026-05-06 17:08 36.15235 -5.34594 18 ft 8 kts 71°
2026-05-06 17:08 36.15287 -5.34576 17 ft 9 kts 359°
2026-05-06 17:09 36.15310 -5.34577 17 ft 0 kts 359°